Regional Weather Roundup
Issued by NWS Northern Indiana

Home | Current Version | Previous Version | Text Only | Print | Product List | Glossary Off
Versions: 1 2 3 4 5 6 7 8 9 10 11 12 13 14 15 16 17 18 19 20 21 22 23 24 25 26 27 28 29 30 31 32 33 34 35 36 37 38 39 40 41 42 43 44 45 46 47 48 49 50

000
ASUS43 KIWX 230410
RWRIWX

KIWX WEATHER ROUNDUP
NATIONAL WEATHER SERVICE NORTHERN INDIANA
1200 AM EDT WED JUL 23 2014

NOTE: "FAIR" INDICATES FEW OR NO CLOUDS BELOW 12,000 FEET WITH NO
SIGNIFICANT WEATHER AND/OR OBSTRUCTIONS TO VISIBILITY.

* THESE STATIONS ARE NOT UNDER NWS QUALITY CONTROL. THEY ALSO MAY NOT
  REPORT WEATHER SUCH AS PRECIPITATION OR FOG.

INZ001>027-230500-
NORTHERN INDIANA

CITY           SKY/WX    TMP DP  RH WIND       PRES   REMARKS
GARY*          PTCLDY    82  74  78 SW5       29.96S
VALPARAISO     CLEAR     76  71  85 SW8       29.98F
MICHIGAN CITY* PTCLDY    77  70  78 SW6       29.97R
LAPORTE*       CLEAR     76  70  81 SW7       29.99R
KNOX*          PTCLDY    77  68  73 SW6       29.97S
SOUTH BEND     PTCLDY    79  70  74 SW8       29.99R
GOSHEN         CLOUDY    80  69  69 SW6       29.99R
MONTICELLO*    CLEAR     73  70  92 SW3       29.99F
LOGANSPORT*    CLOUDY    72  68  88 SW7       30.01S
ROCHESTER*     CLOUDY    79  70  73 SW6       30.00S
WARSAW*        CLOUDY    79  70  73 SW8       30.00R
ANGOLA*        CLOUDY    79  70  73 SW5       30.00R
FORT WAYNE     MOCLDY    75  68  78 SW7       30.00R
HUNTINGTON*    CLEAR     75  69  81 SW3       30.00R
PERU/GRISSOM   PTCLDY    73  73 100 SW8       30.01S
MARION*        PTCLDY    71  67  87 W3        30.02R

$$
INZ028>050-230500-
CENTRAL INDIANA

CITY           SKY/WX    TMP DP  RH WIND       PRES   REMARKS
LAFAYETTE      CLEAR     74  70  87 SW3       30.00F
KOKOMO*        PTCLDY    75  70  83 SW7       30.02R
MUNCIE*        CLOUDY    78  65  63 SW5       30.02S
INDIANAPOLIS   PTCLDY    76  68  76 SW7       30.02S

$$
MIZ043>046-050>051-056>058-064>065-071>073-077>080-230500-
SOUTHWEST LOWER MICHIGAN

CITY           SKY/WX    TMP DP  RH WIND       PRES   REMARKS
BATTLE CREEK   CLOUDY    80  69  69 W9        29.98R
BENTON HARBOR  CLOUDY    80  72  76 SW9       29.95S
COLDWATER*     CLOUDY    79  70  72 SW8       29.99R
HILLSDALE*     CLOUDY    79  68  68 W5        29.99S
HOLLAND        TSTM      70  65  84 SW13      29.96F
GRAND RAPIDS   TSTM      72  68  87 NW12G24   29.96R
KALAMAZOO      PTCLDY    79  69  71 W7        29.98R
STURGIS*       MOCLDY    77  72  83 SW5       29.98S
THREE RIVERS*  FAIR      78  72  79 SW3       29.98S

$$
OHZ001>008-015>018-024>025-230500-
NORTHWEST OHIO

CITY           SKY/WX    TMP DP  RH WIND       PRES   REMARKS
WAUSEON*         N/A     77  66  69 SW7       29.98S
DEFIANCE       PTCLDY    77  66  68 CALM      29.99R
FINDLAY        CLEAR     74  66  76 SW8       29.99R
TOLEDO EXPRESS CLOUDY    78  67  68 SW6       29.97S
TOLEDO METCALF CLEAR     78  65  63 SW8       29.97S
LIMA           CLEAR     77  67  71 SW8       30.02R

$$
&&


USA.gov is the U.S. government's official web portal to all federal, state and local government web resources and services.